Location: Ferchesar
(52.6477°N, 12.4298°E)
Time: 13:24:00
(UTC+01:00)

Transit 4A - Pass Details

Date: 15 December 2021
Orbit: 864 x 981 km, 66.8° (Epoch: 20 January)

Event Time Altitude Azimuth Distance (km) Brightness Sun altitude
Rises 19:18:25 0° 259° (W) 3,506 12.1 -29.2°
Reaches altitude 10° 19:21:10 10° 270° (W) 2,586 11.2 -29.7°
Maximum altitude 19:26:31 32° 333° (NNW) 1,529 9.2 -30.5°
Enters shadow 19:27:49 30° 356° (N) 1,620 9.1 -30.7°
